Location: Praha
(50.0830°N, 14.4670°E)
Time: 06:38:01
(UTC+02:00)

ISS - Pass Details

Date: 10 July 2024
Orbit: 409 x 423 km, 51.6° (Epoch: 24 July)

Event Time Altitude Azimuth Distance (km) Brightness Sun altitude
Rises 23:00:23 0° 242° (WSW) 2,330 0.1 -12.5°
Reaches altitude 10° 23:02:28 10° 240° (WSW) 1,472 -1.0 -12.7°
Maximum altitude 23:05:44 65° 158° (SSE) 455 -3.9 -12.9°
Drops below altitude 10° 23:09:02 10° 76° (ENE) 1,480 -1.1 -13.2°
Sets 23:11:08 0° 73° (ENE) 2,346 -0.1 -13.4°
